Year,Month,Day,Hour,Minute,Value (Times are PST for temperature in C)
2009,07,02,00,00,12.00
2009,07,02,00,01,12.00
2009,07,02,00,02,11.90
2009,07,02,00,03,11.90
2009,07,02,00,04,11.90
2009,07,02,00,05,11.80
2009,07,02,00,06,11.80
2009,07,02,00,07,11.80
2009,07,02,00,08,11.80
2009,07,02,00,09,11.70
2009,07,02,00,10,11.70
2009,07,02,00,11,11.70
2009,07,02,00,12,11.70
2009,07,02,00,18,11.60
2009,07,02,00,19,11.50
2009,07,02,00,20,11.50
2009,07,02,00,21,11.50
2009,07,02,00,22,11.40
2009,07,02,00,23,11.40
2009,07,02,00,24,11.40
2009,07,02,00,25,11.40
2009,07,02,00,26,11.40
2009,07,02,00,27,11.40
2009,07,02,00,28,11.40
2009,07,02,00,29,11.40
2009,07,02,00,30,11.40
2009,07,02,00,31,11.40
2009,07,02,00,32,11.40
2009,07,02,00,33,11.40
2009,07,02,00,34,11.30
2009,07,02,00,35,11.30
2009,07,02,00,36,11.30
2009,07,02,00,37,11.30
2009,07,02,00,38,11.30
2009,07,02,00,39,11.30
2009,07,02,00,40,11.30
2009,07,02,00,41,11.30
2009,07,02,00,42,11.30
2009,07,02,00,43,11.30
2009,07,02,00,44,11.30
2009,07,02,00,45,11.40
2009,07,02,00,46,11.30
2009,07,02,00,47,11.30
2009,07,02,00,48,11.30
2009,07,02,00,49,11.30
2009,07,02,00,50,11.30
2009,07,02,00,51,11.30
2009,07,02,00,52,11.30
2009,07,02,00,53,11.30
2009,07,02,00,54,11.20
2009,07,02,00,55,11.20
2009,07,02,00,56,11.20
2009,07,02,00,57,11.20
2009,07,02,00,58,11.20
2009,07,02,00,59,11.10
2009,07,02,01,00,11.10
2009,07,02,01,01,11.10
2009,07,02,01,02,11.10
2009,07,02,01,03,11.00
2009,07,02,01,04,11.00
2009,07,02,01,05,10.90
2009,07,02,01,06,10.90
2009,07,02,01,07,10.90
2009,07,02,01,08,10.90
2009,07,02,01,09,10.80
2009,07,02,01,10,10.80
2009,07,02,01,11,10.80
2009,07,02,01,12,10.80
2009,07,02,01,13,10.80
2009,07,02,01,14,10.70
2009,07,02,01,15,10.70
2009,07,02,01,16,10.70
2009,07,02,01,17,10.70
2009,07,02,01,18,10.70
2009,07,02,01,19,10.70
2009,07,02,01,20,10.70
2009,07,02,01,21,10.60
2009,07,02,01,22,10.60
2009,07,02,01,23,10.60
2009,07,02,01,24,10.50
2009,07,02,01,25,10.50
2009,07,02,01,26,10.50
2009,07,02,01,27,10.40
2009,07,02,01,28,10.40
2009,07,02,01,29,10.40
2009,07,02,01,30,10.30
2009,07,02,01,31,10.30
2009,07,02,01,32,10.30
2009,07,02,01,33,10.30
2009,07,02,01,34,10.30
2009,07,02,01,35,10.20
2009,07,02,01,36,10.20
2009,07,02,01,37,10.20
2009,07,02,01,38,10.20
2009,07,02,01,39,10.20
2009,07,02,01,40,10.20
2009,07,02,01,41,10.10
2009,07,02,01,42,10.10
2009,07,02,01,43,10.10
2009,07,02,01,44,10.10
2009,07,02,01,45,10.10
2009,07,02,01,46,10.10
2009,07,02,01,47,10.10
2009,07,02,01,48,10.10
2009,07,02,01,49,10.10
2009,07,02,01,50,10.10
2009,07,02,01,51,10.10
2009,07,02,01,52,10.10
2009,07,02,01,53,10.10
2009,07,02,01,54,10.10
2009,07,02,01,55,10.10
2009,07,02,01,56,10.10
2009,07,02,01,57,10.10
2009,07,02,01,58,10.10
2009,07,02,01,59,10.10
2009,07,02,02,00,10.10
2009,07,02,02,01,10.10
2009,07,02,02,02,10.10
2009,07,02,02,03,10.10
2009,07,02,02,04,10.00
2009,07,02,02,05,10.00
2009,07,02,02,06,10.00
2009,07,02,02,07,10.00
2009,07,02,02,08,10.00
2009,07,02,02,09,10.00
2009,07,02,02,10,10.00
2009,07,02,02,11,10.00
2009,07,02,02,12,10.00
2009,07,02,02,13,10.00
2009,07,02,02,14,10.00
2009,07,02,02,15,10.00
2009,07,02,02,16,9.90
2009,07,02,02,17,9.90
2009,07,02,02,18,9.90
2009,07,02,02,19,9.90
2009,07,02,02,20,9.90
2009,07,02,02,21,9.90
2009,07,02,02,22,9.90
2009,07,02,02,23,9.90
2009,07,02,02,24,9.90
2009,07,02,02,25,9.90
2009,07,02,02,26,9.90
2009,07,02,02,27,9.90
2009,07,02,02,28,9.90
2009,07,02,02,29,9.90
2009,07,02,02,30,9.90
2009,07,02,02,31,9.90
2009,07,02,02,32,9.90
2009,07,02,02,33,9.90
2009,07,02,02,34,9.80
2009,07,02,02,35,9.80
2009,07,02,02,36,9.80
2009,07,02,02,37,9.80
2009,07,02,02,38,9.80
2009,07,02,02,39,9.80
2009,07,02,02,40,9.80
2009,07,02,02,41,9.80
2009,07,02,02,42,9.80
2009,07,02,02,43,9.80
2009,07,02,02,44,9.80
2009,07,02,02,45,9.80
2009,07,02,02,46,9.80
2009,07,02,02,47,9.80
2009,07,02,02,48,9.70
2009,07,02,02,49,9.70
2009,07,02,02,50,9.70
2009,07,02,02,51,9.70
2009,07,02,02,52,9.60
2009,07,02,02,53,9.60
2009,07,02,02,54,9.60
2009,07,02,02,55,9.60
2009,07,02,02,56,9.60
2009,07,02,02,57,9.50
2009,07,02,02,58,9.50
2009,07,02,02,59,9.50
2009,07,02,03,00,9.40
2009,07,02,03,01,9.40
2009,07,02,03,02,9.40
2009,07,02,03,03,9.40
2009,07,02,03,04,9.30
2009,07,02,03,05,9.30
2009,07,02,03,06,9.30
2009,07,02,03,07,9.30
2009,07,02,03,08,9.20
2009,07,02,03,09,9.20
2009,07,02,03,10,9.20
2009,07,02,03,11,9.20
2009,07,02,03,12,9.20
2009,07,02,03,13,9.10
2009,07,02,03,14,9.10
2009,07,02,03,15,9.10
2009,07,02,03,16,9.10
2009,07,02,03,17,9.00
2009,07,02,03,18,9.00
2009,07,02,03,19,9.00
2009,07,02,03,20,9.00
2009,07,02,03,21,8.90
2009,07,02,03,22,8.90
2009,07,02,03,23,8.90
2009,07,02,03,24,8.90
2009,07,02,03,25,8.90
2009,07,02,03,26,8.90
2009,07,02,03,27,8.80
2009,07,02,03,28,8.80
2009,07,02,03,29,8.80
2009,07,02,03,30,8.80
2009,07,02,03,31,8.80
2009,07,02,03,32,8.70
2009,07,02,03,33,8.70
2009,07,02,03,34,8.70
2009,07,02,03,35,8.70
2009,07,02,03,36,8.80
2009,07,02,03,37,8.80
2009,07,02,03,38,8.80
2009,07,02,03,39,8.80
2009,07,02,03,40,8.80
2009,07,02,03,41,8.80
2009,07,02,03,42,8.80
2009,07,02,03,43,8.80
2009,07,02,03,44,8.70
2009,07,02,03,45,8.70
2009,07,02,03,46,8.70
2009,07,02,03,47,8.70
2009,07,02,03,48,8.70
2009,07,02,03,49,8.70
2009,07,02,03,50,8.70
2009,07,02,03,51,8.60
2009,07,02,03,52,8.60
2009,07,02,03,53,8.60
2009,07,02,03,54,8.60
2009,07,02,03,55,8.60
2009,07,02,03,56,8.60
2009,07,02,03,57,8.60
2009,07,02,03,58,8.60
2009,07,02,03,59,8.60
2009,07,02,04,00,8.60
2009,07,02,04,01,8.60
2009,07,02,04,02,8.60
2009,07,02,04,03,8.60
2009,07,02,04,04,8.60
2009,07,02,04,05,8.60
2009,07,02,04,06,8.60
2009,07,02,04,07,8.60
2009,07,02,04,08,8.60
2009,07,02,04,09,8.60
2009,07,02,04,10,8.60
2009,07,02,04,11,8.60
2009,07,02,04,12,8.50
2009,07,02,04,13,8.50
2009,07,02,04,14,8.50
2009,07,02,04,15,8.40
2009,07,02,04,16,8.40
2009,07,02,04,17,8.40
2009,07,02,04,18,8.40
2009,07,02,04,19,8.40
2009,07,02,04,20,8.40
2009,07,02,04,21,8.30
2009,07,02,04,22,8.30
2009,07,02,04,23,8.30
2009,07,02,04,24,8.30
2009,07,02,04,25,8.20
2009,07,02,04,26,8.20
2009,07,02,04,27,8.20
2009,07,02,04,28,8.20
2009,07,02,04,29,8.20
2009,07,02,04,30,8.20
2009,07,02,04,31,8.10
2009,07,02,04,32,8.10
2009,07,02,04,33,8.10
2009,07,02,04,34,8.00
2009,07,02,04,35,8.00
2009,07,02,04,36,8.00
2009,07,02,04,37,7.90
2009,07,02,04,38,7.90
2009,07,02,04,39,7.90
2009,07,02,04,40,7.90
2009,07,02,04,41,7.90
2009,07,02,04,42,7.90
2009,07,02,04,43,7.80
2009,07,02,04,44,7.80
2009,07,02,04,45,7.80
2009,07,02,04,46,7.80
2009,07,02,04,47,7.80
2009,07,02,04,48,7.80
2009,07,02,04,49,7.80
2009,07,02,04,50,7.80
2009,07,02,04,51,7.80
2009,07,02,04,52,7.80
2009,07,02,04,53,7.80
2009,07,02,04,54,7.80
2009,07,02,04,55,7.80
2009,07,02,04,56,7.80
2009,07,02,04,57,7.80
2009,07,02,04,58,7.80
2009,07,02,04,59,7.80
2009,07,02,05,00,7.70
2009,07,02,05,01,7.70
2009,07,02,05,02,7.70
2009,07,02,05,03,7.70
2009,07,02,05,04,7.70
2009,07,02,05,05,7.70
2009,07,02,05,06,7.70
2009,07,02,05,07,7.70
2009,07,02,05,08,7.60
2009,07,02,05,09,7.60
2009,07,02,05,10,7.60
2009,07,02,05,11,7.60
2009,07,02,05,12,7.60
2009,07,02,05,13,7.60
2009,07,02,05,14,7.50
2009,07,02,05,15,7.50
2009,07,02,05,16,7.50
2009,07,02,05,17,7.50
2009,07,02,05,18,7.50
2009,07,02,05,19,7.50
2009,07,02,05,20,7.50
2009,07,02,05,21,7.40
2009,07,02,05,22,7.40
2009,07,02,05,23,7.50
2009,07,02,05,24,7.40
2009,07,02,05,25,7.40
2009,07,02,05,26,7.40
2009,07,02,05,27,7.40
2009,07,02,05,28,7.40
2009,07,02,05,29,7.40
2009,07,02,05,30,7.40
2009,07,02,05,31,7.40
2009,07,02,05,32,7.40
2009,07,02,05,33,7.40
2009,07,02,05,34,7.40
2009,07,02,05,35,7.40
2009,07,02,05,36,7.40
2009,07,02,05,37,7.40
2009,07,02,05,38,7.40
2009,07,02,05,39,7.40
2009,07,02,05,40,7.40
2009,07,02,05,41,7.40
2009,07,02,05,42,7.30
2009,07,02,05,43,7.30
2009,07,02,05,44,7.40
2009,07,02,05,45,7.40
2009,07,02,05,46,7.40
2009,07,02,05,47,7.40
2009,07,02,05,48,7.40
2009,07,02,05,49,7.40
2009,07,02,05,50,7.40
2009,07,02,05,51,7.40
2009,07,02,05,52,7.40
2009,07,02,05,53,7.40
2009,07,02,05,54,7.40
2009,07,02,05,55,7.40
2009,07,02,05,56,7.40
2009,07,02,05,57,7.40
2009,07,02,05,58,7.40
2009,07,02,05,59,7.40
2009,07,02,06,00,7.40
2009,07,02,06,01,7.50
2009,07,02,06,02,7.50
2009,07,02,06,03,7.50
2009,07,02,06,04,7.50
2009,07,02,06,05,7.50
2009,07,02,06,06,7.50
2009,07,02,06,07,7.50
2009,07,02,06,08,7.50
2009,07,02,06,09,7.50
2009,07,02,06,10,7.60
2009,07,02,06,11,7.60
2009,07,02,06,12,7.60
2009,07,02,06,13,7.60
2009,07,02,06,14,7.60
2009,07,02,06,15,7.60
2009,07,02,06,16,7.60
2009,07,02,06,17,7.70
2009,07,02,06,18,7.70
2009,07,02,06,19,7.70
2009,07,02,06,20,7.70
2009,07,02,06,21,7.80
2009,07,02,06,22,7.80
2009,07,02,06,23,7.80
2009,07,02,06,24,7.80
2009,07,02,06,25,7.80
2009,07,02,06,26,7.90
2009,07,02,06,27,7.90
2009,07,02,06,28,8.00
2009,07,02,06,29,8.00
2009,07,02,06,30,8.00
2009,07,02,06,31,8.10
2009,07,02,06,32,8.10
2009,07,02,06,33,8.10
2009,07,02,06,34,8.20
2009,07,02,06,35,8.30
2009,07,02,06,36,8.30
2009,07,02,06,37,8.40
2009,07,02,06,38,8.50
2009,07,02,06,39,8.60
2009,07,02,06,40,8.70
2009,07,02,06,41,8.80
2009,07,02,06,42,8.90
2009,07,02,06,43,9.00
2009,07,02,06,44,9.10
2009,07,02,06,45,9.20
2009,07,02,06,46,9.30
2009,07,02,06,47,9.40
2009,07,02,06,48,9.50
2009,07,02,06,49,9.60
2009,07,02,06,50,9.60
2009,07,02,06,51,9.70
2009,07,02,06,52,9.70
2009,07,02,06,53,9.80
2009,07,02,06,54,9.90
2009,07,02,06,55,10.00
2009,07,02,06,56,10.00
2009,07,02,06,57,10.10
2009,07,02,06,58,10.10
2009,07,02,06,59,10.20
2009,07,02,07,00,10.30
2009,07,02,07,01,10.30
2009,07,02,07,02,10.30
2009,07,02,07,03,10.40
2009,07,02,07,04,10.40
2009,07,02,07,05,10.50
2009,07,02,07,06,10.60
2009,07,02,07,07,10.60
2009,07,02,07,08,10.70
2009,07,02,07,09,10.80
2009,07,02,07,10,10.90
2009,07,02,07,11,11.00
2009,07,02,07,12,11.10
2009,07,02,07,13,11.20
2009,07,02,07,14,11.40
2009,07,02,07,15,11.50
2009,07,02,07,16,11.60
2009,07,02,07,17,11.70
2009,07,02,07,18,11.90
2009,07,02,07,19,12.00
2009,07,02,07,20,12.10
2009,07,02,07,21,12.20
2009,07,02,07,22,12.40
2009,07,02,07,23,12.50
2009,07,02,07,24,12.60
2009,07,02,07,25,12.70
2009,07,02,07,26,12.80
2009,07,02,07,27,12.90
2009,07,02,07,28,13.00
2009,07,02,07,29,13.10
2009,07,02,07,30,13.20
2009,07,02,07,31,13.20
2009,07,02,07,32,13.30
2009,07,02,07,33,13.40
2009,07,02,07,34,13.50
2009,07,02,07,35,13.60
2009,07,02,07,36,13.60
2009,07,02,07,37,13.70
2009,07,02,07,38,13.70
2009,07,02,07,39,13.80
2009,07,02,07,40,13.80
2009,07,02,07,41,13.90
2009,07,02,07,42,14.00
2009,07,02,07,43,14.10
2009,07,02,07,44,14.20
2009,07,02,07,45,14.20
2009,07,02,07,46,14.30
2009,07,02,07,47,14.40
2009,07,02,07,48,14.40
2009,07,02,07,49,14.50
2009,07,02,07,50,14.60
2009,07,02,07,51,14.70
2009,07,02,07,52,14.80
2009,07,02,07,53,14.90
2009,07,02,07,54,15.00
2009,07,02,07,55,15.00
2009,07,02,07,56,15.00
2009,07,02,07,57,15.00
2009,07,02,07,58,15.00
2009,07,02,07,59,15.20
2009,07,02,08,00,15.20
2009,07,02,08,01,15.30
2009,07,02,08,02,15.50
2009,07,02,08,03,15.50
2009,07,02,08,04,15.60
2009,07,02,08,05,15.70
2009,07,02,08,06,15.80
2009,07,02,08,07,15.90
2009,07,02,08,08,16.00
2009,07,02,08,09,16.20
2009,07,02,08,10,16.30
2009,07,02,08,11,16.30
2009,07,02,08,12,16.40
2009,07,02,08,13,16.40
2009,07,02,08,14,16.40
2009,07,02,08,15,16.40
2009,07,02,08,16,16.50
2009,07,02,08,17,16.50
2009,07,02,08,18,16.60
2009,07,02,08,19,16.60
2009,07,02,08,20,16.70
2009,07,02,08,21,16.70
2009,07,02,08,22,16.80
2009,07,02,08,23,16.80
2009,07,02,08,24,16.90
2009,07,02,08,25,17.00
2009,07,02,08,26,17.10
2009,07,02,08,27,17.20
2009,07,02,08,28,17.30
2009,07,02,08,29,17.40
2009,07,02,08,30,17.40
2009,07,02,08,31,17.50
2009,07,02,08,32,17.60
2009,07,02,08,33,17.70
2009,07,02,08,34,17.80
2009,07,02,08,35,17.90
2009,07,02,08,36,17.90
2009,07,02,08,37,18.00
2009,07,02,08,38,18.10
2009,07,02,08,39,18.20
2009,07,02,08,40,18.20
2009,07,02,08,41,18.30
2009,07,02,08,42,18.40
2009,07,02,08,43,18.40
2009,07,02,08,44,18.50
2009,07,02,08,45,18.60
2009,07,02,08,46,18.70
2009,07,02,08,47,18.70
2009,07,02,08,48,18.70
2009,07,02,08,49,18.80
2009,07,02,08,50,18.80
2009,07,02,08,51,18.80
2009,07,02,08,52,18.80
2009,07,02,08,53,18.90
2009,07,02,08,54,18.90
2009,07,02,08,55,19.00
2009,07,02,08,56,18.90
2009,07,02,08,57,18.90
2009,07,02,08,58,18.90
2009,07,02,08,59,19.00
2009,07,02,09,00,19.00
2009,07,02,09,01,19.20
2009,07,02,09,02,19.30
2009,07,02,09,03,19.40
2009,07,02,09,04,19.50
2009,07,02,09,05,19.60
2009,07,02,09,06,19.60
2009,07,02,09,07,19.70
2009,07,02,09,08,19.70
2009,07,02,09,09,19.80
2009,07,02,09,10,19.80
2009,07,02,09,11,19.90
2009,07,02,09,12,19.90
2009,07,02,09,13,20.00
2009,07,02,09,14,20.10
2009,07,02,09,15,20.20
2009,07,02,09,16,20.30
2009,07,02,09,17,20.40
2009,07,02,09,18,20.50
2009,07,02,09,19,20.60
2009,07,02,09,20,20.60
2009,07,02,09,21,20.60
2009,07,02,09,22,20.60
2009,07,02,09,23,20.60
2009,07,02,09,24,20.70
2009,07,02,09,25,20.80
2009,07,02,09,26,20.90
2009,07,02,09,27,20.90
2009,07,02,09,28,21.00
2009,07,02,09,29,20.90
2009,07,02,09,30,20.90
2009,07,02,09,31,21.00
2009,07,02,09,32,21.00
2009,07,02,09,33,21.10
2009,07,02,09,34,21.30
2009,07,02,09,35,21.40
2009,07,02,09,36,21.50
2009,07,02,09,37,21.60
2009,07,02,09,38,21.70
2009,07,02,09,39,21.70
2009,07,02,09,40,21.70
2009,07,02,09,41,21.60
2009,07,02,09,42,21.70
2009,07,02,09,43,21.70
2009,07,02,09,44,21.80
2009,07,02,09,45,21.80
2009,07,02,09,46,21.80
2009,07,02,09,47,21.80
2009,07,02,09,48,21.80
2009,07,02,09,49,21.80
2009,07,02,09,50,21.90
2009,07,02,09,51,21.80
2009,07,02,09,52,21.80
2009,07,02,09,53,21.70
2009,07,02,09,54,21.80
2009,07,02,09,55,21.80
2009,07,02,09,56,21.70
2009,07,02,09,57,21.70
2009,07,02,09,58,21.80
2009,07,02,09,59,21.80
2009,07,02,10,00,21.90
2009,07,02,10,01,22.00
2009,07,02,10,02,22.10
2009,07,02,10,03,22.20
2009,07,02,10,04,22.20
2009,07,02,10,05,22.30
2009,07,02,10,06,22.40
2009,07,02,10,07,22.40
2009,07,02,10,08,22.50
2009,07,02,10,09,22.40
2009,07,02,10,10,22.40
2009,07,02,10,11,22.40
2009,07,02,10,12,22.40
2009,07,02,10,13,22.40
2009,07,02,10,14,22.40
2009,07,02,10,15,22.40
2009,07,02,10,16,22.40
2009,07,02,10,17,22.50
2009,07,02,10,18,22.50
2009,07,02,10,19,22.50
2009,07,02,10,20,22.40
2009,07,02,10,21,22.40
2009,07,02,10,22,22.40
2009,07,02,10,23,22.40
2009,07,02,10,24,22.30
2009,07,02,10,25,22.40
2009,07,02,10,26,22.50
2009,07,02,10,27,22.60
2009,07,02,10,28,22.70
2009,07,02,10,29,22.80
2009,07,02,10,30,22.70
2009,07,02,10,31,22.80
2009,07,02,10,32,22.80
2009,07,02,10,33,22.80
2009,07,02,10,34,22.80
2009,07,02,10,35,22.80
2009,07,02,10,36,22.80
2009,07,02,10,37,22.80
2009,07,02,10,38,22.80
2009,07,02,10,39,22.80
2009,07,02,10,40,22.90
2009,07,02,10,41,22.90
2009,07,02,10,42,22.90
2009,07,02,10,43,22.80
2009,07,02,10,44,22.80
2009,07,02,10,45,22.80
2009,07,02,10,46,22.70
2009,07,02,10,47,22.60
2009,07,02,10,48,22.60
2009,07,02,10,49,22.70
2009,07,02,10,50,22.60
2009,07,02,10,51,22.60
2009,07,02,10,52,22.70
2009,07,02,10,53,22.70
2009,07,02,10,54,22.80
2009,07,02,10,55,22.80
2009,07,02,10,56,22.90
2009,07,02,10,57,22.90
2009,07,02,10,58,22.90
2009,07,02,10,59,22.80
2009,07,02,11,00,22.70
2009,07,02,11,01,22.60
2009,07,02,11,02,22.60
2009,07,02,11,03,22.50
2009,07,02,11,04,22.60
2009,07,02,11,05,22.60
2009,07,02,11,06,22.70
2009,07,02,11,07,22.80
2009,07,02,11,08,22.80
2009,07,02,11,09,22.80
2009,07,02,11,10,22.80
2009,07,02,11,11,22.90
2009,07,02,11,12,23.00
2009,07,02,11,13,23.00
2009,07,02,11,14,22.90
2009,07,02,11,15,22.80
2009,07,02,11,16,22.70
2009,07,02,11,17,22.70
2009,07,02,11,18,22.70
2009,07,02,11,19,22.70
2009,07,02,11,20,22.80
2009,07,02,11,21,22.90
2009,07,02,11,22,23.00
2009,07,02,11,23,23.10
2009,07,02,11,24,23.10
2009,07,02,11,25,23.00
2009,07,02,11,26,22.90
2009,07,02,11,27,22.90
2009,07,02,11,28,22.90
2009,07,02,11,29,23.00
2009,07,02,11,30,23.10
2009,07,02,11,31,23.20
2009,07,02,11,32,23.30
2009,07,02,11,33,23.30
2009,07,02,11,34,23.20
2009,07,02,11,35,23.10
2009,07,02,11,36,23.00
2009,07,02,11,37,22.90
2009,07,02,11,38,22.90
2009,07,02,11,39,22.90
2009,07,02,11,40,22.90
2009,07,02,11,41,23.00
2009,07,02,11,42,23.00
2009,07,02,11,43,23.00
2009,07,02,11,44,23.00
2009,07,02,11,45,23.10
2009,07,02,11,46,23.20
2009,07,02,11,47,23.20
2009,07,02,11,48,23.20
2009,07,02,11,49,23.20
2009,07,02,11,50,23.10
2009,07,02,11,51,23.10
2009,07,02,11,52,23.10
2009,07,02,11,53,23.00
2009,07,02,11,54,23.10
2009,07,02,11,55,23.10
2009,07,02,11,56,23.20
2009,07,02,11,57,23.20
2009,07,02,11,58,23.30
2009,07,02,11,59,23.30
2009,07,02,12,00,23.10
2009,07,02,12,01,23.00
2009,07,02,12,02,23.00
2009,07,02,12,03,23.10
2009,07,02,12,04,23.20
2009,07,02,12,05,23.20
2009,07,02,12,06,23.20
2009,07,02,12,07,23.30
2009,07,02,12,08,23.30
2009,07,02,12,09,23.30
2009,07,02,12,10,23.40
2009,07,02,12,11,23.40
2009,07,02,12,12,23.50
2009,07,02,12,13,23.60
2009,07,02,12,14,23.70
2009,07,02,12,15,23.70
2009,07,02,12,16,23.70
2009,07,02,12,17,23.70
2009,07,02,12,18,23.70
2009,07,02,12,19,23.70
2009,07,02,12,20,23.80
2009,07,02,12,21,23.80
2009,07,02,12,22,23.80
2009,07,02,12,23,23.80
2009,07,02,12,24,23.90
2009,07,02,12,25,23.80
2009,07,02,12,26,23.70
2009,07,02,12,27,23.50
2009,07,02,12,28,23.30
2009,07,02,12,29,23.30
2009,07,02,12,30,23.20
2009,07,02,12,31,23.30
2009,07,02,12,32,23.40
2009,07,02,12,33,23.50
2009,07,02,12,34,23.60
2009,07,02,12,35,23.70
2009,07,02,12,36,23.60
2009,07,02,12,37,23.50
2009,07,02,12,38,23.30
2009,07,02,12,39,23.20
2009,07,02,12,40,23.20
2009,07,02,12,41,23.20
2009,07,02,12,42,23.10
2009,07,02,12,43,23.10
2009,07,02,12,44,23.20
2009,07,02,12,45,23.30
2009,07,02,12,46,23.40
2009,07,02,12,47,23.40
2009,07,02,12,48,23.30
2009,07,02,12,49,23.20
2009,07,02,12,50,23.20
2009,07,02,12,51,23.30
2009,07,02,12,52,23.30
2009,07,02,12,53,23.30
2009,07,02,12,54,23.30
2009,07,02,12,55,23.30
2009,07,02,12,56,23.40
2009,07,02,12,57,23.40
2009,07,02,12,58,23.50
2009,07,02,12,59,23.50
2009,07,02,13,00,23.60
2009,07,02,13,01,23.70
2009,07,02,13,02,23.70
2009,07,02,13,03,23.60
2009,07,02,13,04,23.60
2009,07,02,13,05,23.60
2009,07,02,13,06,23.60
2009,07,02,13,07,23.60
2009,07,02,13,08,23.40
2009,07,02,13,09,23.40
2009,07,02,13,10,23.30
2009,07,02,13,11,23.30
2009,07,02,13,12,23.40
2009,07,02,13,13,23.50
2009,07,02,13,14,23.50
2009,07,02,13,15,23.50
2009,07,02,13,16,23.40
2009,07,02,13,17,23.40
2009,07,02,13,18,23.30
2009,07,02,13,19,23.30
2009,07,02,13,20,23.40
2009,07,02,13,21,23.60
2009,07,02,13,22,23.70
2009,07,02,13,23,23.90
2009,07,02,13,24,24.10
2009,07,02,13,25,24.20
2009,07,02,13,26,24.40
2009,07,02,13,27,24.50
2009,07,02,13,28,24.60
2009,07,02,13,29,24.80
2009,07,02,13,30,24.90
2009,07,02,13,31,25.00
2009,07,02,13,32,24.90
2009,07,02,13,33,24.70
2009,07,02,13,34,24.50
2009,07,02,13,35,24.40
2009,07,02,13,36,24.40
2009,07,02,13,37,24.40
2009,07,02,13,38,24.50
2009,07,02,13,39,24.60
2009,07,02,13,40,24.60
2009,07,02,13,41,24.70
2009,07,02,13,42,24.70
2009,07,02,13,43,24.70
2009,07,02,13,44,24.60
2009,07,02,13,45,24.50
2009,07,02,13,46,24.50
2009,07,02,13,47,24.50
2009,07,02,13,48,24.50
2009,07,02,13,49,24.50
2009,07,02,13,50,24.50
2009,07,02,13,51,24.50
2009,07,02,13,52,24.60
2009,07,02,13,53,24.70
2009,07,02,13,54,24.80
2009,07,02,13,55,24.90
2009,07,02,13,56,24.90
2009,07,02,13,57,25.00
2009,07,02,13,58,25.00
2009,07,02,13,59,25.00
2009,07,02,14,00,24.80
2009,07,02,14,01,24.80
2009,07,02,14,02,24.70
2009,07,02,14,03,24.70
2009,07,02,14,04,24.80
2009,07,02,14,05,24.90
2009,07,02,14,06,24.90
2009,07,02,14,07,24.80
2009,07,02,14,08,24.80
2009,07,02,14,09,24.80
2009,07,02,14,10,24.90
2009,07,02,14,11,24.90
2009,07,02,14,12,24.90
2009,07,02,14,13,24.80
2009,07,02,14,14,24.70
2009,07,02,14,15,24.70
2009,07,02,14,16,24.70
2009,07,02,14,17,24.70
2009,07,02,14,18,24.70
2009,07,02,14,19,24.70
2009,07,02,14,20,24.70
2009,07,02,14,21,24.70
2009,07,02,14,22,24.70
2009,07,02,14,23,24.70
2009,07,02,14,24,24.70
2009,07,02,14,25,24.70
2009,07,02,14,26,24.70
2009,07,02,14,27,24.70
2009,07,02,14,28,24.70
2009,07,02,14,29,24.70
2009,07,02,14,30,24.60
2009,07,02,14,31,24.70
2009,07,02,14,32,24.70
2009,07,02,14,33,24.70
2009,07,02,14,34,24.70
2009,07,02,14,35,24.80
2009,07,02,14,36,24.80
2009,07,02,14,37,24.80
2009,07,02,14,38,24.80
2009,07,02,14,39,24.70
2009,07,02,14,40,24.70
2009,07,02,14,41,24.80
2009,07,02,14,42,24.80
2009,07,02,14,43,24.80
2009,07,02,14,44,24.70
2009,07,02,14,45,24.70
2009,07,02,14,46,24.80
2009,07,02,14,47,24.80
2009,07,02,14,48,24.90
2009,07,02,14,49,25.00
2009,07,02,14,50,25.20
2009,07,02,14,51,25.20
2009,07,02,14,52,25.20
2009,07,02,14,53,25.10
2009,07,02,14,54,25.00
2009,07,02,14,55,24.90
2009,07,02,14,56,24.90
2009,07,02,14,57,24.90
2009,07,02,14,58,24.90
2009,07,02,14,59,24.90
2009,07,02,15,00,24.90
2009,07,02,15,01,25.00
2009,07,02,15,02,25.20
2009,07,02,15,03,25.40
2009,07,02,15,04,25.60
2009,07,02,15,05,25.60
2009,07,02,15,06,25.60
2009,07,02,15,07,25.60
2009,07,02,15,08,25.60
2009,07,02,15,09,25.70
2009,07,02,15,10,25.80
2009,07,02,15,11,25.90
2009,07,02,15,12,26.00
2009,07,02,15,13,26.10
2009,07,02,15,14,26.10
2009,07,02,15,15,26.20
2009,07,02,15,16,26.30
2009,07,02,15,17,26.30
2009,07,02,15,18,26.20
2009,07,02,15,19,26.10
2009,07,02,15,20,26.20
2009,07,02,15,21,26.10
2009,07,02,15,22,26.00
2009,07,02,15,23,25.90
2009,07,02,15,24,25.90
2009,07,02,15,25,25.90
2009,07,02,15,26,26.00
2009,07,02,15,27,26.10
2009,07,02,15,28,26.10
2009,07,02,15,29,26.20
2009,07,02,15,30,26.30
2009,07,02,15,31,26.30
2009,07,02,15,32,26.20
2009,07,02,15,33,26.00
2009,07,02,15,34,25.90
2009,07,02,15,35,25.80
2009,07,02,15,36,25.80
2009,07,02,15,37,25.70
2009,07,02,15,38,25.80
2009,07,02,15,39,25.90
2009,07,02,15,40,25.90
2009,07,02,15,41,25.70
2009,07,02,15,42,25.50
2009,07,02,15,43,25.40
2009,07,02,15,44,25.30
2009,07,02,15,45,25.30
2009,07,02,15,46,25.40
2009,07,02,15,47,25.40
2009,07,02,15,48,25.50
2009,07,02,15,49,25.50
2009,07,02,15,50,25.50
2009,07,02,15,51,25.40
2009,07,02,15,52,25.30
2009,07,02,15,53,25.30
2009,07,02,15,54,25.20
2009,07,02,15,55,25.30
2009,07,02,15,56,25.40
2009,07,02,15,57,25.30
2009,07,02,15,58,25.20
2009,07,02,15,59,25.10
2009,07,02,16,00,25.00
2009,07,02,16,01,24.90
2009,07,02,16,02,24.80
2009,07,02,16,03,24.90
2009,07,02,16,04,25.00
2009,07,02,16,05,25.00
2009,07,02,16,06,25.00
2009,07,02,16,07,24.90
2009,07,02,16,08,24.80
2009,07,02,16,09,24.70
2009,07,02,16,10,24.80
2009,07,02,16,11,24.80
2009,07,02,16,12,24.80
2009,07,02,16,13,24.80
2009,07,02,16,14,24.70
2009,07,02,16,15,24.70
2009,07,02,16,16,24.70
2009,07,02,16,17,24.80
2009,07,02,16,18,24.90
2009,07,02,16,19,24.90
2009,07,02,16,20,24.90
2009,07,02,16,21,24.90
2009,07,02,16,22,24.90
2009,07,02,16,23,25.00
2009,07,02,16,24,25.10
2009,07,02,16,25,25.10
2009,07,02,16,26,25.10
2009,07,02,16,27,25.10
2009,07,02,16,28,25.00
2009,07,02,16,29,25.00
2009,07,02,16,30,24.90
2009,07,02,16,31,24.90
2009,07,02,16,32,25.00
2009,07,02,16,33,25.10
2009,07,02,16,34,25.20
2009,07,02,16,35,25.20
2009,07,02,16,36,25.10
2009,07,02,16,37,25.00
2009,07,02,16,38,25.10
2009,07,02,16,39,25.20
2009,07,02,16,40,25.20
2009,07,02,16,41,25.20
2009,07,02,16,42,25.20
2009,07,02,16,43,25.10
2009,07,02,16,44,25.00
2009,07,02,16,45,24.90
2009,07,02,16,46,25.00
2009,07,02,16,47,25.10
2009,07,02,16,48,25.10
2009,07,02,16,49,25.00
2009,07,02,16,50,24.90
2009,07,02,16,51,24.70
2009,07,02,16,52,24.70
2009,07,02,16,53,24.70
2009,07,02,16,54,24.70
2009,07,02,16,55,24.80
2009,07,02,16,56,24.80
2009,07,02,16,57,24.80
2009,07,02,16,58,24.80
2009,07,02,16,59,24.70
2009,07,02,17,00,24.70
2009,07,02,17,01,24.60
2009,07,02,17,02,24.70
2009,07,02,17,03,24.80
2009,07,02,17,04,24.80
2009,07,02,17,05,24.80
2009,07,02,17,06,24.90
2009,07,02,17,07,25.00
2009,07,02,17,08,25.10
2009,07,02,17,09,25.20
2009,07,02,17,10,25.10
2009,07,02,17,11,25.10
2009,07,02,17,12,25.10
2009,07,02,17,13,25.00
2009,07,02,17,14,25.00
2009,07,02,17,15,25.20
2009,07,02,17,16,25.20
2009,07,02,17,17,25.20
2009,07,02,17,18,25.10
2009,07,02,17,19,25.10
2009,07,02,17,20,25.10
2009,07,02,17,21,25.00
2009,07,02,17,22,25.10
2009,07,02,17,23,25.10
2009,07,02,17,24,25.20
2009,07,02,17,25,25.30
2009,07,02,17,26,25.30
2009,07,02,17,27,25.30
2009,07,02,17,28,25.30
2009,07,02,17,29,25.40
2009,07,02,17,30,25.50
2009,07,02,17,31,25.40
2009,07,02,17,32,25.40
2009,07,02,17,33,25.50
2009,07,02,17,34,25.60
2009,07,02,17,35,25.60
2009,07,02,17,36,25.70